Ord, NE

12:11 PM CDT on April 28, 2017 (GMT -0500)
Sharp

Weather History for KODX - May, 2014

Change the Weather History Date:

Sunday, May 25, 2014

  Actual Average Record
Temperature  
Mean Temperature 71 °F 62 °F  
Max Temperature 84 °F 75 °F 88 °F (2006)
Min Temperature 58 °F 50 °F 30 °F (2002)
Degree Days  
Heating Degree Days 0 4  
Month to date heating degree days 256 195  
Since 1 July heating degree days 6548  
Cooling Degree Days 6 2  
Month to date cooling degree days 21 27  
Year to date cooling degree days 22 29  
Growing Degree Days 20 (Base 50)    
Moisture  
Dew Point 60 °F    
Average Humidity 73    
Maximum Humidity 100    
Minimum Humidity 46    
Precipitation  
Precipitation T in 0.14 in 2.95 in (1917)
Month to date precipitation 0.49 2.93  
Year to date precipitation 2.20 7.78  
Sea Level Pressure  
Sea Level Pressure 29.93 in    
Wind  
Wind Speed 7 mph (SSE)    
Max Wind Speed 24 mph    
Max Gust Speed 31 mph    
Visibility 7 miles    
Events Fog , Rain , Thunderstorm    
T = Trace of Precipitation, MM = Missing Value Source: NWS Daily Summary

Daily Weather History Graph

Daily Weather History Graph

Search for Another Location

Airport or City:

Trip Planner

Search our weather history database for the weather conditions in past years. The results will help you decide how hot, cold, wet, or windy it might be!

Date:

Astronomy

May. 25, 2014 Rise Set
Actual Time 6:07 AM CDT 8:58 PM CDT
Civil Twilight 5:35 AM CDT 9:30 PM CDT
Nautical Twilight 4:54 AM CDT 10:12 PM CDT
Astronomical Twilight 4:06 AM CDT 11:00 PM CDT
Moon 4:16 AM CDT (5/25) 5:58 PM CDT (5/25)
Length of Visible Light 15h 55m
Length of Day
14h 50m
Waning Crescent, 10% of the Moon is Illuminated
May 25
Waning Crescent
May 28
New
Jun 5
First Quarter
Jun 12
Full
Jun 19
Last Quarter

Hourly Weather History & Observations

Time (CDT) Temp. Heat Index Dew Point Humidity Pressure Visibility Wind Dir Wind Speed Gust Speed Precip Events Conditions
12:53 AM 62.6 °F - 57.2 °F 82% 30.00 in 10.0 mi SSE 4.6 mph - N/A   Partly Cloudy
1:53 AM 61.0 °F - 57.9 °F 90% 29.96 in 10.0 mi SE 4.6 mph - N/A   Clear
2:35 AM 57.9 °F - 57.0 °F 97% 29.96 in 7.0 mi ENE 3.5 mph - N/A   Scattered Clouds
2:44 AM 59.0 °F - 57.9 °F 96% 29.96 in 6.0 mi East 3.5 mph - N/A   Mostly Cloudy
2:53 AM 60.1 °F - 57.9 °F 93% 29.94 in 7.0 mi ESE 3.5 mph - N/A   Overcast
3:29 AM 61.0 °F - 59.0 °F 93% 29.96 in 4.0 mi SE 6.9 mph - N/A   Overcast
3:53 AM 60.8 °F - 60.8 °F 100% 29.97 in 1.8 mi SSE 5.8 mph - N/A   Overcast
4:19 AM 61.0 °F - 60.1 °F 97% 29.97 in 1.0 mi SE 4.6 mph - N/A   Overcast
4:44 AM 61.0 °F - 60.1 °F 97% 29.96 in 0.8 mi SE 8.1 mph - N/A   Overcast
4:53 AM 61.0 °F - 60.1 °F 97% 29.94 in 1.2 mi SE 5.8 mph - N/A   Overcast
5:01 AM 61.0 °F - 60.1 °F 97% 29.96 in 0.8 mi SE 4.6 mph - N/A   Overcast
5:53 AM 61.0 °F - 61.0 °F 100% 29.94 in 0.2 mi ESE 3.5 mph - N/A Fog Fog
6:53 AM 62.1 °F - 61.0 °F 96% 29.94 in 0.2 mi ESE 3.5 mph - N/A Fog Fog
7:47 AM 62.6 °F - 62.6 °F 100% 29.95 in 1.2 mi SE 6.9 mph - N/A   Overcast
7:53 AM 63.0 °F - 62.1 °F 97% 29.94 in 2.5 mi SSE 6.9 mph - N/A   Overcast
8:03 AM 63.0 °F - 62.1 °F 97% 29.95 in 3.0 mi SE 5.8 mph - N/A   Overcast
8:53 AM 64.0 °F - 62.1 °F 93% 29.94 in 5.0 mi SSE 8.1 mph - N/A   Overcast
9:23 AM 64.9 °F - 62.1 °F 90% 29.96 in 7.0 mi South 8.1 mph - N/A   Overcast
9:53 AM 66.2 °F - 62.6 °F 88% 29.96 in 9.0 mi SSE 6.9 mph - N/A   Overcast
10:00 AM 66.9 °F - 62.1 °F 84% 29.96 in 9.0 mi SSE 8.1 mph - N/A   Overcast
10:08 AM 66.9 °F - 62.1 °F 84% 29.96 in 10.0 mi SSE 6.9 mph - N/A   Overcast
10:15 AM 68.0 °F - 62.1 °F 81% 29.96 in 10.0 mi South 6.9 mph - N/A   Overcast
10:53 AM 70.0 °F - 62.1 °F 76% 29.94 in 10.0 mi SSE 9.2 mph - N/A   Overcast
11:53 AM 73.9 °F - 61.0 °F 64% 29.93 in 10.0 mi SSW 12.7 mph - N/A   Mostly Cloudy
12:14 PM 75.0 °F - 61.0 °F 62% 29.95 in 10.0 mi South 15.0 mph - N/A   Scattered Clouds
12:26 PM 75.9 °F - 61.0 °F 60% 29.94 in 10.0 mi South 11.5 mph - N/A   Mostly Cloudy
12:36 PM 75.0 °F - 61.0 °F 62% 29.94 in 10.0 mi South 8.1 mph 17.3 mph N/A   Scattered Clouds
12:43 PM 77.0 °F - 61.0 °F 58% 29.94 in 10.0 mi SSW 10.4 mph - N/A   Mostly Cloudy
12:50 PM 77.0 °F - 60.8 °F 57% 29.94 in 10.0 mi South 8.1 mph - N/A   Scattered Clouds
12:53 PM 75.9 °F - 61.0 °F 60% 29.92 in 10.0 mi South 4.6 mph - N/A   Scattered Clouds
1:53 PM 80.1 °F 80.9 °F 60.1 °F 50% 29.90 in 10.0 mi SSE 6.9 mph - N/A   Scattered Clouds
2:53 PM 82.9 °F 82.8 °F 59.0 °F 44% 29.88 in 10.0 mi SSE 11.5 mph 17.3 mph N/A   Partly Cloudy
3:53 PM 81.0 °F 81.3 °F 59.0 °F 47% 29.86 in 10.0 mi South 9.2 mph - N/A   Partly Cloudy
4:32 PM 78.1 °F - 59.0 °F 52% 29.90 in 10.0 mi South 11.5 mph - N/A Thunderstorm Clear
4:53 PM 72.0 °F - 60.1 °F 66% 29.90 in 10.0 mi South 24.2 mph 29.9 mph 0.00 in Rain Light Rain
5:53 PM 70.0 °F - 61.0 °F 73% 29.85 in 10.0 mi SSW 8.1 mph - 0.00 in   Scattered Clouds
6:53 PM 75.9 °F - 54.0 °F 46% 29.84 in 10.0 mi South 6.9 mph - N/A   Clear
7:53 PM 75.0 °F - 57.0 °F 53% 29.86 in 10.0 mi SSE 4.6 mph - N/A   Clear
8:53 PM 71.1 °F - 59.0 °F 66% 29.88 in 10.0 mi SSE 4.6 mph - N/A   Clear
9:53 PM 64.9 °F - 59.0 °F 81% 29.90 in 10.0 mi SSW 4.6 mph - N/A   Clear
10:53 PM 63.0 °F - 59.0 °F 87% 29.93 in 10.0 mi SW 3.5 mph - N/A   Partly Cloudy
11:53 PM 64.0 °F - 60.1 °F 87% 29.91 in 10.0 mi Calm Calm - N/A   Mostly Cloudy